User: anonymous   Login
Location: Unspecified
(0.0000°N, 0.0000°E)
Time: 23:18:34
(UTC+00:00)
Language:

SICH 2 - Orbit

View from above orbital plane
View from above orbital plane
View from above satellite
View from above satellite

Ground track
Ground track

The orbit data is extracted from the following two-line orbital elements,

1 37794U 11044G   18050.93044403 +.00000045 +00000-0 +18275-4 0  9997
2 37794 098.0469 126.0742 0013821 054.9710 033.1466 14.61752900347148
Epoch (UTC): 19 February 2018 22:19:50
Eccentricity: 0.0013821
inclination: 98.0469°
perigee height: 678 km
apogee height: 697 km
right ascension of ascending node: 126.0742°
argument of perigee: 54.9710°
revolutions per day: 14.61752900
mean anomaly at epoch: 33.1466°
orbit number at epoch: 34714

The dashed part of the orbit path shows where the satellite is in the earth's shadow,  

DLR